M I D A S
Marine Information and Data Acquisition System
Tripno 1856 of the Zeeleeuw from 2010-04-07 09:01:31 to 2010-04-07 14:18:54
Back to CruiseResearch ActivitiesStationsMapUnderway DataData graphs

EquipmentUnitsComment
TimeDGPSUTC
LatitudeDGPSDM.mWGS84
LongitudeDGPSDM.mWGS84
TemperatureSBE03/SBE38deg celciusITS90
ConductivitySBE21S/mITS90
SalinitySBE21 Practical Salinity Units
ChlorophylAChelsea fluorimeterg/lCalibrated in Aceton
Missing or incorrect values are displayed as -999
Sea surface data collected by the RV Zeeleeuw from 2010-04-07 06:36:08 to 2010-04-07 14:20:56
Time Latitude Longitude Temperature Conductivity Salinity ChlorophylA
2010-04-07 06:37:13 51°13.666 2°55.961 14.1491 -999 -999 -999
2010-04-07 06:38:13 51°13.666 2°55.961 14.1541 -999 -999 -999
2010-04-07 06:39:14 51°13.667 2°55.961 14.1588 -999 -999 -999
2010-04-07 06:40:14 51°13.664 2°55.96 14.164 -999 -999 -999
2010-04-07 06:41:13 51°13.662 2°55.96 14.169 -999 -999 -999
2010-04-07 06:42:14 51°13.662 2°55.96 14.1745 -999 -999 -999
2010-04-07 06:43:13 51°13.662 2°55.96 14.1797 -999 -999 -999
2010-04-07 06:44:14 51°13.662 2°55.961 14.185 -999 -999 -999
2010-04-07 06:45:13 51°13.66 2°55.959 14.1905 -999 -999 -999
2010-04-07 06:46:14 51°13.66 2°55.96 14.1964 -999 -999 -999
2010-04-07 06:47:14 51°13.658 2°55.961 14.2018 -999 -999 -999
2010-04-07 06:48:13 51°13.659 2°55.961 14.2077 -999 -999 -999
2010-04-07 06:49:13 51°13.658 2°55.961 14.2133 -999 -999 -999
2010-04-07 06:50:14 51°13.662 2°55.962 14.2192 -999 -999 -999
2010-04-07 06:51:14 51°13.664 2°55.961 14.2252 -999 -999 -999
2010-04-07 06:52:13 51°13.662 2°55.96 14.2312 -999 -999 -999
2010-04-07 06:53:13 51°13.662 2°55.96 14.2368 -999 -999 -999
2010-04-07 06:54:13 51°13.661 2°55.959 14.243 -999 -999 -999
2010-04-07 06:55:13 51°13.661 2°55.959 14.2491 -999 -999 -999
2010-04-07 06:56:13 51°13.661 2°55.959 14.2554 -999 -999 -999
2010-04-07 06:57:13 51°13.661 2°55.959 14.2614 -999 -999 -999
2010-04-07 06:58:13 51°13.661 2°55.96 14.2677 -999 -999 -999
2010-04-07 06:59:13 51°13.661 2°55.96 14.2738 -999 -999 -999
2010-04-07 07:00:13 51°13.661 2°55.96 14.2805 -999 -999 -999
2010-04-07 07:01:13 51°13.662 2°55.96 14.2865 -999 -999 -999
2010-04-07 07:02:13 51°13.661 2°55.96 14.2928 -999 -999 -999
2010-04-07 07:03:13 51°13.662 2°55.959 14.2992 -999 -999 -999
2010-04-07 07:52:19 51°13.662 2°55.961 15.1851 -999 -999 -999
2010-04-07 07:53:19 51°13.662 2°55.961 15.2098 -999 -999 -999
2010-04-07 07:54:19 51°13.662 2°55.961 15.2348 -999 -999 -999
2010-04-07 07:55:19 51°13.662 2°55.961 15.2593 -999 -999 -999
2010-04-07 07:56:19 51°13.661 2°55.961 15.2846 -999 -999 -999
2010-04-07 07:57:19 51°13.662 2°55.961 15.3095 -999 -999 -999
2010-04-07 07:58:19 51°13.662 2°55.961 15.3341 -999 -999 -999
2010-04-07 07:59:19 51°13.662 2°55.961 15.3581 -999 -999 -999
2010-04-07 08:00:19 51°13.662 2°55.961 15.3825 -999 -999 -999
2010-04-07 08:01:19 51°13.662 2°55.961 15.4063 -999 -999 -999
2010-04-07 08:02:19 51°13.662 2°55.961 15.4301 -999 -999 -999
2010-04-07 08:03:19 51°13.662 2°55.961 15.4553 -999 -999 -999
2010-04-07 08:04:19 51°13.662 2°55.961 15.4723 -999 -999 -999
2010-04-07 08:05:19 51°13.662 2°55.961 15.4851 -999 -999 -999
2010-04-07 08:06:18 51°13.662 2°55.96 15.4952 -999 -999 -999
2010-04-07 08:07:19 51°13.66 2°55.962 15.5037 -999 -999 -999
2010-04-07 08:08:19 51°13.66 2°55.962 15.5108 -999 -999 -999
2010-04-07 08:09:19 51°13.661 2°55.961 15.5175 -999 -999 -999
2010-04-07 08:10:20 51°13.661 2°55.961 15.5237 -999 -999 -999
2010-04-07 08:11:19 51°13.662 2°55.96 15.5287 -999 -999 -999
2010-04-07 08:12:19 51°13.662 2°55.96 15.5336 -999 -999 -999
2010-04-07 08:13:19 51°13.662 2°55.96 15.5375 -999 -999 -999
2010-04-07 08:14:19 51°13.662 2°55.96 15.5417 -999 -999 -999
2010-04-07 08:15:19 51°13.662 2°55.961 15.5448 -999 -999 -999
2010-04-07 08:16:19 51°13.662 2°55.962 15.5479 -999 -999 -999
2010-04-07 08:17:19 51°13.661 2°55.962 15.5507 -999 -999 -999
2010-04-07 08:18:19 51°13.661 2°55.962 15.5536 -999 -999 -999
2010-04-07 08:19:19 51°13.662 2°55.956 15.5564 -999 -999 -999
2010-04-07 08:20:19 51°13.661 2°55.959 15.5592 -999 -999 -999
2010-04-07 08:21:19 51°13.661 2°55.959 15.5616 -999 -999 -999
2010-04-07 08:22:19 51°13.662 2°55.959 15.5645 -999 -999 -999
2010-04-07 08:23:19 51°13.662 2°55.959 15.5663 -999 -999 -999
2010-04-07 08:24:19 51°13.662 2°55.959 15.5679 -999 -999 -999
2010-04-07 08:25:19 51°13.66 2°55.961 15.5704 -999 -999 -999
2010-04-07 08:26:19 51°13.66 2°55.961 15.5726 -999 -999 -999
2010-04-07 08:27:19 51°13.662 2°55.96 15.5742 -999 -999 -999
2010-04-07 08:28:19 51°13.663 2°55.958 15.575 -999 -999 -999
2010-04-07 08:29:19 51°13.664 2°55.958 15.5762 -999 -999 -999
2010-04-07 08:30:19 51°13.663 2°55.958 15.5776 -999 -999 -999
2010-04-07 08:31:20 51°13.665 2°55.956 15.5786 -999 -999 -999
2010-04-07 08:32:19 51°13.668 2°55.959 15.58 -999 -999 -999
2010-04-07 08:33:19 51°13.671 2°55.959 15.5808 -999 -999 -999
2010-04-07 08:34:19 51°13.669 2°55.959 15.5824 -999 -999 -999
2010-04-07 08:35:19 51°13.666 2°55.961 15.5839 -999 -999 -999
2010-04-07 08:36:19 51°13.664 2°55.961 15.5854 -999 -999 -999
2010-04-07 08:37:19 51°13.665 2°55.961 15.5872 -999 -999 -999
2010-04-07 08:38:19 51°13.666 2°55.961 15.5887 -999 -999 -999
2010-04-07 08:39:19 51°13.666 2°55.96 15.5908 -999 -999 -999
2010-04-07 08:40:19 51°13.665 2°55.959 15.5923 -999 -999 -999
2010-04-07 08:41:19 51°13.664 2°55.959 15.594 -999 -999 -999
2010-04-07 08:42:19 51°13.664 2°55.959 15.5954 -999 -999 -999
2010-04-07 08:43:19 51°13.664 2°55.958 15.5974 -999 -999 -999
2010-04-07 08:44:19 51°13.664 2°55.958 15.5986 -999 -999 -999
2010-04-07 08:45:19 51°13.662 2°55.958 15.6005 -999 -999 -999
2010-04-07 08:46:19 51°13.662 2°55.959 15.6015 -999 -999 -999
2010-04-07 08:47:19 51°13.662 2°55.958 15.6028 -999 -999 -999
2010-04-07 08:48:19 51°13.662 2°55.959 15.6043 -999 -999 -999
2010-04-07 08:49:19 51°13.662 2°55.96 15.6065 -999 -999 -999
2010-04-07 08:50:19 51°13.662 2°55.96 15.6082 -999 -999 -999
2010-04-07 08:51:19 51°13.662 2°55.961 15.6103 -999 -999 -999
2010-04-07 08:52:19 51°13.661 2°55.961 15.6128 -999 -999 -999
2010-04-07 08:53:19 51°13.663 2°55.961 15.6152 -999 -999 -999
2010-04-07 08:54:19 51°13.663 2°55.962 15.6188 -999 -999 -999
2010-04-07 08:55:19 51°13.661 2°55.962 15.622 -999 -999 -999
2010-04-07 08:56:19 51°13.661 2°55.962 15.6253 -999 -999 -999
2010-04-07 08:57:19 51°13.661 2°55.955 15.6279 -999 -999 -999
2010-04-07 08:58:19 51°13.685 2°55.878 15.6309 -999 -999 -999
2010-04-07 08:59:19 51°13.701 2°55.772 15.6339 -999 -999 -999
2010-04-07 09:00:18 51°13.704 2°55.732 15.6371 -999 -999 -999
2010-04-07 09:01:17 51°13.746 2°55.718 15.6398 -999 -999 -999
2010-04-07 09:02:16 51°13.866 2°55.615 15.643 -999 -999 -999
2010-04-07 09:03:15 51°14.015 2°55.505 15.6462 -999 -999 -999
2010-04-07 09:04:18 51°14.173 2°55.384 15.6492 -999 -999 -999
2010-04-07 09:05:18 51°14.318 2°55.245 15.6522 -999 -999 -999
2010-04-07 09:06:17 51°14.473 2°55.074 15.6551 -999 -999 -999
2010-04-07 09:07:15 51°14.642 2°54.87 15.6587 -999 -999 -999
2010-04-07 09:08:15 51°14.824 2°54.647 15.6616 -999 -999 -999
2010-04-07 09:09:15 51°15.009 2°54.43 15.6647 -999 -999 -999
2010-04-07 09:10:15 51°15.194 2°54.216 15.6679 -999 -999 -999
2010-04-07 09:11:16 51°15.377 2°53.984 15.6714 -999 -999 -999
2010-04-07 09:12:15 51°15.556 2°53.763 15.6744 -999 -999 -999
2010-04-07 09:13:15 51°15.744 2°53.553 15.6772 -999 -999 -999
2010-04-07 09:14:15 51°15.956 2°53.411 15.6815 -999 -999 -999
2010-04-07 09:15:15 51°16.171 2°53.279 15.6852 -999 -999 -999
2010-04-07 09:16:15 51°16.385 2°53.146 15.6885 -999 -999 -999
2010-04-07 09:17:15 51°16.6 2°53.01 15.6921 -999 -999 -999
2010-04-07 09:18:15 51°16.814 2°52.878 15.6955 -999 -999 -999
2010-04-07 09:19:15 51°17.03 2°52.754 15.6989 -999 -999 -999
2010-04-07 09:20:16 51°17.259 2°52.671 15.703 -999 -999 -999
2010-04-07 09:21:15 51°17.485 2°52.626 15.7072 -999 -999 -999
2010-04-07 09:22:16 51°17.72 2°52.584 15.7115 -999 -999 -999
2010-04-07 09:23:15 51°17.948 2°52.588 15.7158 -999 -999 -999
2010-04-07 09:24:15 51°18.182 2°52.591 15.7198 -999 -999 -999
2010-04-07 09:25:15 51°18.415 2°52.595 15.7235 -999 -999 -999
2010-04-07 09:26:15 51°18.648 2°52.593 15.7278 -999 -999 -999
2010-04-07 09:27:15 51°18.881 2°52.591 15.7321 -999 -999 -999
2010-04-07 09:28:15 51°19.114 2°52.586 15.7357 -999 -999 -999
2010-04-07 09:29:15 51°19.347 2°52.582 15.7401 -999 -999 -999
2010-04-07 09:30:15 51°19.58 2°52.58 15.7445 -999 -999 -999
2010-04-07 09:31:15 51°19.813 2°52.578 15.7488 -999 -999 -999
2010-04-07 09:32:15 51°20.044 2°52.605 15.7531 -999 -999 -999
2010-04-07 09:33:15 51°20.275 2°52.65 15.7583 -999 -999 -999
2010-04-07 09:34:15 51°20.504 2°52.716 15.7628 -999 -999 -999
2010-04-07 09:35:15 51°20.727 2°52.829 15.7677 -999 -999 -999
2010-04-07 09:36:15 51°20.949 2°52.94 15.7723 -999 -999 -999
2010-04-07 09:37:16 51°21.176 2°53.051 15.7776 -999 -999 -999
2010-04-07 09:38:15 51°21.396 2°53.157 15.7826 -999 -999 -999
2010-04-07 09:39:15 51°21.62 2°53.265 15.7878 -999 -999 -999
2010-04-07 09:40:15 51°21.846 2°53.367 15.7932 -999 -999 -999
2010-04-07 09:41:15 51°22.076 2°53.445 15.7983 -999 -999 -999
2010-04-07 09:42:15 51°22.307 2°53.523 15.8036 -999 -999 -999
2010-04-07 09:43:15 51°22.535 2°53.598 15.8089 -999 -999 -999
2010-04-07 09:44:15 51°22.763 2°53.677 15.8145 -999 -999 -999
2010-04-07 09:45:15 51°22.991 2°53.758 15.8198 -999 -999 -999
2010-04-07 09:46:15 51°23.218 2°53.837 15.8261 -999 -999 -999
2010-04-07 09:47:15 51°23.446 2°53.913 15.8319 -999 -999 -999
2010-04-07 09:48:15 51°23.674 2°53.98 15.838 -999 -999 -999
2010-04-07 09:49:15 51°23.904 2°54.027 15.8435 -999 -999 -999
2010-04-07 09:50:15 51°24.135 2°54.07 15.8484 -999 -999 -999
2010-04-07 09:51:15 51°24.367 2°54.117 15.8534 -999 -999 -999
2010-04-07 09:52:15 51°24.599 2°54.162 15.8601 -999 -999 -999
2010-04-07 09:53:15 51°24.832 2°54.206 15.8657 -999 -999 -999
2010-04-07 09:54:15 51°25.065 2°54.253 15.8714 -999 -999 -999
2010-04-07 09:55:15 51°25.297 2°54.3 15.877 -999 -999 -999
2010-04-07 09:56:15 51°25.529 2°54.345 15.883 -999 -999 -999
2010-04-07 09:57:15 51°25.762 2°54.393 15.8884 -999 -999 -999
2010-04-07 09:58:15 51°25.994 2°54.443 15.8926 -999 -999 -999
2010-04-07 09:59:15 51°26.225 2°54.49 15.9019 -999 -999 -999
2010-04-07 10:00:16 51°26.458 2°54.542 15.9122 -999 -999 -999
2010-04-07 10:01:15 51°26.683 2°54.596 15.924 -999 -999 -999
2010-04-07 10:02:15 51°26.913 2°54.651 15.9333 -999 -999 -999
2010-04-07 10:03:15 51°27.143 2°54.692 15.9406 -999 -999 -999
2010-04-07 10:04:15 51°27.373 2°54.734 15.947 -999 -999 -999
2010-04-07 10:05:15 51°27.604 2°54.768 15.9529 -999 -999 -999
2010-04-07 10:06:15 51°27.835 2°54.801 15.9587 -999 -999 -999
2010-04-07 10:07:15 51°28.067 2°54.831 15.9636 -999 -999 -999
2010-04-07 10:08:15 51°28.299 2°54.86 15.969 -999 -999 -999
2010-04-07 10:09:15 51°28.53 2°54.887 15.9749 -999 -999 -999
2010-04-07 10:10:15 51°28.762 2°54.917 15.98 -999 -999 -999
2010-04-07 10:11:15 51°28.993 2°54.948 15.9853 -999 -999 -999
2010-04-07 10:12:15 51°29.224 2°54.98 15.9904 -999 -999 -999
2010-04-07 10:13:15 51°29.456 2°55.012 15.9951 -999 -999 -999
2010-04-07 10:14:15 51°29.688 2°55.043 16.0002 -999 -999 -999
2010-04-07 10:15:15 51°29.918 2°55.104 16.0054 -999 -999 -999
2010-04-07 10:16:10 51°30.126 2°55.169 16.0098 -999 -999 -999
2010-04-07 10:17:15 51°30.372 2°55.244 16.0161 -999 -999 -999
2010-04-07 10:18:40 51°30.694 2°55.336 16.024 -999 -999 -999
2010-04-07 10:19:41 51°30.925 2°55.399 16.0301 -999 -999 -999
2010-04-07 10:20:40 51°31.149 2°55.456 16.0354 -999 -999 -999
2010-04-07 10:21:41 51°31.383 2°55.515 16.0418 -999 -999 -999
2010-04-07 10:22:41 51°31.612 2°55.573 16.0469 -999 -999 -999
2010-04-07 10:23:41 51°31.843 2°55.63 16.0528 -999 -999 -999
2010-04-07 10:24:40 51°32.056 2°55.673 16.0588 -999 -999 -999
2010-04-07 10:25:41 51°32.255 2°55.685 16.0644 -999 -999 -999
2010-04-07 10:26:41 51°32.44 2°55.681 16.0687 -999 -999 -999
2010-04-07 10:27:41 51°32.551 2°55.633 16.0752 -999 -999 -999
2010-04-07 10:28:41 51°32.6 2°55.589 16.0822 -999 -999 -999
2010-04-07 10:29:41 51°32.623 2°55.574 16.0897 -999 -999 -999
2010-04-07 10:30:41 51°32.642 2°55.561 16.0984 -999 -999 -999
2010-04-07 10:31:41 51°32.659 2°55.546 16.1064 -999 -999 -999
2010-04-07 10:32:41 51°32.673 2°55.53 16.1163 -999 -999 -999
2010-04-07 10:33:41 51°32.684 2°55.515 16.1252 -999 -999 -999
2010-04-07 10:34:41 51°32.695 2°55.501 16.1344 -999 -999 -999
2010-04-07 10:35:41 51°32.704 2°55.488 16.1435 -999 -999 -999
2010-04-07 10:36:41 51°32.712 2°55.476 16.1514 -999 -999 -999
2010-04-07 10:37:41 51°32.719 2°55.465 16.1624 -999 -999 -999
2010-04-07 10:38:41 51°32.726 2°55.456 16.1711 -999 -999 -999
2010-04-07 10:39:41 51°32.733 2°55.448 16.1788 -999 -999 -999
2010-04-07 10:40:41 51°32.739 2°55.44 16.1858 -999 -999 -999
2010-04-07 10:41:41 51°32.746 2°55.434 16.193 -999 -999 -999
2010-04-07 10:42:41 51°32.752 2°55.428 16.2 -999 -999 -999
2010-04-07 10:43:41 51°32.759 2°55.424 16.2071 -999 -999 -999
2010-04-07 10:44:41 51°32.764 2°55.42 16.2143 -999 -999 -999
2010-04-07 10:45:41 51°32.77 2°55.416 16.221 -999 -999 -999
2010-04-07 10:46:41 51°32.775 2°55.413 16.2285 -999 -999 -999
2010-04-07 10:47:41 51°32.78 2°55.41 16.2353 -999 -999 -999
2010-04-07 10:48:41 51°32.787 2°55.405 16.2421 -999 -999 -999
2010-04-07 10:49:40 51°32.788 2°55.402 16.2491 -999 -999 -999
2010-04-07 10:50:41 51°32.779 2°55.399 16.2555 -999 -999 -999
2010-04-07 10:51:40 51°32.765 2°55.391 16.2619 -999 -999 -999
2010-04-07 10:52:41 51°32.753 2°55.381 16.2679 -999 -999 -999
2010-04-07 10:53:41 51°32.743 2°55.37 16.2745 -999 -999 -999
2010-04-07 10:54:40 51°32.735 2°55.36 16.2805 -999 -999 -999
2010-04-07 10:55:41 51°32.727 2°55.349 16.2871 -999 -999 -999
2010-04-07 10:56:40 51°32.722 2°55.339 16.2935 -999 -999 -999
2010-04-07 10:57:41 51°32.717 2°55.329 16.3 -999 -999 -999
2010-04-07 10:58:41 51°32.713 2°55.319 16.3067 -999 -999 -999
2010-04-07 10:59:41 51°32.71 2°55.309 16.3129 -999 -999 -999
2010-04-07 11:00:41 51°32.707 2°55.299 16.319 -999 -999 -999
2010-04-07 11:01:41 51°32.705 2°55.289 16.325 -999 -999 -999
2010-04-07 11:02:41 51°32.703 2°55.28 16.3313 -999 -999 -999
2010-04-07 11:03:41 51°32.7 2°55.271 16.3374 -999 -999 -999
2010-04-07 11:04:41 51°32.698 2°55.262 16.344 -999 -999 -999
2010-04-07 11:05:41 51°32.695 2°55.254 16.3502 -999 -999 -999
2010-04-07 11:06:41 51°32.693 2°55.246 16.3561 -999 -999 -999
2010-04-07 11:07:41 51°32.69 2°55.239 16.3627 -999 -999 -999
2010-04-07 11:08:41 51°32.688 2°55.23 16.3681 -999 -999 -999
2010-04-07 11:09:40 51°32.685 2°55.223 16.3743 -999 -999 -999
2010-04-07 11:10:41 51°32.683 2°55.216 16.3799 -999 -999 -999
2010-04-07 11:11:41 51°32.68 2°55.209 16.3858 -999 -999 -999
2010-04-07 11:12:41 51°32.678 2°55.201 16.3914 -999 -999 -999
2010-04-07 11:13:41 51°32.678 2°55.195 16.3974 -999 -999 -999
2010-04-07 11:14:40 51°32.687 2°55.191 16.4032 -999 -999 -999
2010-04-07 11:15:41 51°32.716 2°55.177 16.4093 -999 -999 -999
2010-04-07 11:16:39 51°32.751 2°55.138 16.4138 -999 -999 -999
2010-04-07 11:17:41 51°32.771 2°55.071 16.4193 -999 -999 -999
2010-04-07 11:18:39 51°32.762 2°55.006 16.425 -999 -999 -999
2010-04-07 11:19:41 51°32.729 2°54.965 16.4313 -999 -999 -999
2010-04-07 11:20:39 51°32.695 2°54.972 16.4388 -999 -999 -999
2010-04-07 11:21:39 51°32.676 2°55.014 16.4455 -999 -999 -999
2010-04-07 11:22:40 51°32.678 2°55.072 16.4528 -999 -999 -999
2010-04-07 11:23:40 51°32.687 2°55.121 16.4608 -999 -999 -999
2010-04-07 11:24:40 51°32.7 2°55.154 16.4677 -999 -999 -999
2010-04-07 11:25:41 51°32.712 2°55.176 16.474 -999 -999 -999
2010-04-07 11:26:41 51°32.724 2°55.19 16.4797 -999 -999 -999
2010-04-07 11:27:41 51°32.734 2°55.198 16.4854 -999 -999 -999
2010-04-07 11:28:41 51°32.743 2°55.202 16.4916 -999 -999 -999
2010-04-07 11:29:41 51°32.752 2°55.201 16.4967 -999 -999 -999
2010-04-07 11:30:41 51°32.76 2°55.199 16.5023 -999 -999 -999
2010-04-07 11:31:41 51°32.766 2°55.193 16.5073 -999 -999 -999
2010-04-07 11:32:41 51°32.771 2°55.185 16.512 -999 -999 -999
2010-04-07 11:33:41 51°32.776 2°55.176 16.5168 -999 -999 -999
2010-04-07 11:34:41 51°32.779 2°55.166 16.5217 -999 -999 -999
2010-04-07 11:35:41 51°32.781 2°55.155 16.5269 -999 -999 -999
2010-04-07 11:36:41 51°32.782 2°55.144 16.532 -999 -999 -999
2010-04-07 11:37:41 51°32.783 2°55.133 16.5372 -999 -999 -999
2010-04-07 11:38:40 51°32.783 2°55.122 16.5423 -999 -999 -999
2010-04-07 11:39:41 51°32.783 2°55.112 16.5478 -999 -999 -999
2010-04-07 11:40:41 51°32.782 2°55.103 16.5527 -999 -999 -999
2010-04-07 11:41:41 51°32.781 2°55.094 16.5581 -999 -999 -999
2010-04-07 11:42:41 51°32.779 2°55.085 16.5633 -999 -999 -999
2010-04-07 11:43:41 51°32.777 2°55.077 16.5677 -999 -999 -999
2010-04-07 11:44:41 51°32.774 2°55.069 16.5729 -999 -999 -999
2010-04-07 11:45:40 51°32.772 2°55.061 16.5779 -999 -999 -999
2010-04-07 11:46:41 51°32.769 2°55.052 16.5827 -999 -999 -999
2010-04-07 11:47:40 51°32.766 2°55.043 16.5876 -999 -999 -999
2010-04-07 11:48:41 51°32.763 2°55.034 16.5925 -999 -999 -999
2010-04-07 11:49:41 51°32.759 2°55.025 16.5975 -999 -999 -999
2010-04-07 11:50:40 51°32.756 2°55.016 16.6024 -999 -999 -999
2010-04-07 11:51:41 51°32.753 2°55.008 16.6075 -999 -999 -999
2010-04-07 11:52:40 51°32.751 2°55.001 16.6125 -999 -999 -999
2010-04-07 11:53:41 51°32.761 2°54.989 16.6172 -999 -999 -999
2010-04-07 11:54:40 51°32.799 2°54.961 16.6213 -999 -999 -999
2010-04-07 11:55:40 51°32.859 2°54.888 16.6246 -999 -999 -999
2010-04-07 11:56:41 51°32.9 2°54.803 16.6289 -999 -999 -999
2010-04-07 11:57:41 51°32.918 2°54.729 16.6343 -999 -999 -999
2010-04-07 11:58:41 51°32.926 2°54.666 16.6404 -999 -999 -999
2010-04-07 11:59:40 51°32.93 2°54.614 16.6463 -999 -999 -999
2010-04-07 12:00:41 51°32.932 2°54.568 16.6534 -999 -999 -999
2010-04-07 12:01:40 51°32.933 2°54.529 16.6598 -999 -999 -999
2010-04-07 12:02:41 51°32.937 2°54.474 16.6651 -999 -999 -999
2010-04-07 12:03:40 51°32.948 2°54.407 16.6689 -999 -999 -999
2010-04-07 12:04:41 51°32.968 2°54.327 16.673 -999 -999 -999
2010-04-07 12:05:41 51°32.99 2°54.211 16.6764 -999 -999 -999
2010-04-07 12:06:41 51°32.956 2°54.044 16.6788 -999 -999 -999
2010-04-07 12:07:41 51°32.852 2°53.87 16.6807 -999 -999 -999
2010-04-07 12:08:41 51°32.71 2°53.678 16.6815 -999 -999 -999
2010-04-07 12:09:41 51°32.562 2°53.451 16.6823 -999 -999 -999
2010-04-07 12:10:41 51°32.43 2°53.198 16.682 -999 -999 -999
2010-04-07 12:11:41 51°32.287 2°52.957 16.682 -999 -999 -999
2010-04-07 12:12:40 51°32.158 2°52.731 16.6817 -999 -999 -999
2010-04-07 12:13:40 51°32.071 2°52.581 16.6811 -999 -999 -999
2010-04-07 12:14:40 51°32.004 2°52.468 16.6815 -999 -999 -999
2010-04-07 12:15:40 51°31.946 2°52.376 16.6812 -999 -999 -999
2010-04-07 12:16:41 51°31.896 2°52.286 16.6813 -999 -999 -999
2010-04-07 12:17:41 51°31.841 2°52.209 16.6824 -999 -999 -999
2010-04-07 12:18:41 51°31.814 2°52.16 16.6819 -999 -999 -999
2010-04-07 12:19:39 51°31.799 2°52.119 16.6834 -999 -999 -999
2010-04-07 12:20:49 51°31.794 2°52.108 16.6845 -999 -999 -999
2010-04-07 12:22:06 51°31.797 2°52.117 16.6873 -999 -999 -999
2010-04-07 12:23:03 51°31.799 2°52.126 16.689 -999 -999 -999
2010-04-07 12:24:03 51°31.799 2°52.125 16.691 -999 -999 -999
2010-04-07 12:25:03 51°31.795 2°52.114 16.6931 -999 -999 -999
2010-04-07 12:26:03 51°31.795 2°52.107 16.6961 -999 -999 -999
2010-04-07 12:27:05 51°31.803 2°52.114 16.6999 -999 -999 -999
2010-04-07 12:28:06 51°31.804 2°52.113 16.7043 -999 -999 -999
2010-04-07 12:29:05 51°31.794 2°52.094 16.7086 -999 -999 -999
2010-04-07 12:30:03 51°31.795 2°52.081 16.7131 -999 -999 -999
2010-04-07 12:31:04 51°31.797 2°52.067 16.718 -999 -999 -999
2010-04-07 12:32:04 51°31.79 2°52.051 16.7237 -999 -999 -999
2010-04-07 12:33:03 51°31.697 2°52.016 16.7289 -999 -999 -999
2010-04-07 12:34:03 51°31.528 2°51.982 16.7347 -999 -999 -999
2010-04-07 12:35:04 51°31.339 2°51.959 16.7411 -999 -999 -999
2010-04-07 12:36:03 51°31.151 2°51.952 16.7481 -999 -999 -999
2010-04-07 12:37:03 51°30.958 2°51.944 16.7553 -999 -999 -999
2010-04-07 12:38:04 51°30.762 2°51.93 16.7631 -999 -999 -999
2010-04-07 12:39:03 51°30.572 2°51.919 16.7709 -999 -999 -999
2010-04-07 12:40:03 51°30.399 2°51.917 16.78 -999 -999 -999
2010-04-07 12:41:03 51°30.351 2°52.01 16.7863 -999 -999 -999
2010-04-07 12:42:03 51°30.396 2°52.103 16.7903 -999 -999 -999
2010-04-07 12:43:03 51°30.482 2°52.209 16.7935 -999 -999 -999
2010-04-07 12:44:03 51°30.535 2°52.318 16.7957 -999 -999 -999
2010-04-07 12:45:03 51°30.545 2°52.436 16.7983 -999 -999 -999
2010-04-07 12:46:03 51°30.525 2°52.525 16.8014 -999 -999 -999
2010-04-07 12:47:04 51°30.493 2°52.574 16.8053 -999 -999 -999
2010-04-07 12:48:03 51°30.46 2°52.602 16.8093 -999 -999 -999
2010-04-07 12:49:04 51°30.443 2°52.65 16.8139 -999 -999 -999
2010-04-07 12:50:04 51°30.441 2°52.754 16.8187 -999 -999 -999
2010-04-07 12:51:04 51°30.449 2°52.869 16.8224 -999 -999 -999
2010-04-07 12:52:05 51°30.456 2°52.953 16.8269 -999 -999 -999
2010-04-07 12:53:04 51°30.445 2°53.034 16.831 -999 -999 -999
2010-04-07 12:54:05 51°30.409 2°53.137 16.8351 -999 -999 -999
2010-04-07 12:55:04 51°30.333 2°53.213 16.8392 -999 -999 -999
2010-04-07 12:56:05 51°30.233 2°53.22 16.8431 -999 -999 -999
2010-04-07 12:57:04 51°30.134 2°53.231 16.8466 -999 -999 -999
2010-04-07 12:58:04 51°30.041 2°53.288 16.851 -999 -999 -999
2010-04-07 12:59:04 51°29.954 2°53.319 16.8547 -999 -999 -999
2010-04-07 13:00:04 51°29.902 2°53.229 16.8594 -999 -999 -999
2010-04-07 13:01:05 51°29.865 2°53.156 16.8645 -999 -999 -999
2010-04-07 13:02:04 51°29.797 2°53.13 16.8696 -999 -999 -999
2010-04-07 13:03:04 51°29.619 2°53.135 16.8734 -999 -999 -999
2010-04-07 13:04:04 51°29.387 2°53.142 16.8765 -999 -999 -999
2010-04-07 13:05:04 51°29.16 2°53.171 16.8807 -999 -999 -999
2010-04-07 13:06:04 51°28.93 2°53.21 16.8843 -999 -999 -999
2010-04-07 13:07:04 51°28.698 2°53.24 16.8882 -999 -999 -999
2010-04-07 13:08:04 51°28.465 2°53.255 16.8926 -999 -999 -999
2010-04-07 13:09:04 51°28.232 2°53.274 16.8971 -999 -999 -999
2010-04-07 13:10:04 51°27.999 2°53.292 16.9009 -999 -999 -999
2010-04-07 13:11:04 51°27.763 2°53.309 16.9059 -999 -999 -999
2010-04-07 13:12:04 51°27.528 2°53.328 16.91 -999 -999 -999
2010-04-07 13:13:04 51°27.293 2°53.345 16.9147 -999 -999 -999
2010-04-07 13:14:04 51°27.057 2°53.363 16.9194 -999 -999 -999
2010-04-07 13:15:04 51°26.823 2°53.38 16.9242 -999 -999 -999
2010-04-07 13:16:05 51°26.587 2°53.397 16.9287 -999 -999 -999
2010-04-07 13:17:04 51°26.357 2°53.414 16.9337 -999 -999 -999
2010-04-07 13:18:04 51°26.125 2°53.431 16.9385 -999 -999 -999
2010-04-07 13:19:05 51°25.89 2°53.452 16.9434 -999 -999 -999
2010-04-07 13:20:04 51°25.662 2°53.468 16.9485 -999 -999 -999
2010-04-07 13:21:05 51°25.425 2°53.481 16.9539 -999 -999 -999
2010-04-07 13:22:04 51°25.195 2°53.496 16.9592 -999 -999 -999
2010-04-07 13:23:04 51°24.962 2°53.516 16.9639 -999 -999 -999
2010-04-07 13:24:03 51°24.734 2°53.529 16.9692 -999 -999 -999
2010-04-07 13:25:03 51°24.502 2°53.539 16.9749 -999 -999 -999
2010-04-07 13:26:03 51°24.271 2°53.551 16.98 -999 -999 -999
2010-04-07 13:27:03 51°24.038 2°53.562 16.9854 -999 -999 -999
2010-04-07 13:28:03 51°23.805 2°53.57 16.9908 -999 -999 -999
2010-04-07 13:29:03 51°23.569 2°53.58 16.9968 -999 -999 -999
2010-04-07 13:30:03 51°23.333 2°53.582 17.003 -999 -999 -999
2010-04-07 13:31:03 51°23.099 2°53.5 17.0086 -999 -999 -999
2010-04-07 13:32:03 51°22.867 2°53.409 17.0145 -999 -999 -999
2010-04-07 13:33:03 51°22.638 2°53.322 17.0204 -999 -999 -999
2010-04-07 13:34:03 51°22.411 2°53.218 17.0264 -999 -999 -999
2010-04-07 13:35:03 51°22.182 2°53.133 17.0322 -999 -999 -999
2010-04-07 13:36:03 51°21.952 2°53.05 17.038 -999 -999 -999
2010-04-07 13:37:03 51°21.723 2°52.964 17.0442 -999 -999 -999
2010-04-07 13:38:03 51°21.497 2°52.85 17.0501 -999 -999 -999
2010-04-07 13:39:03 51°21.271 2°52.736 17.0569 -999 -999 -999
2010-04-07 13:40:03 51°21.042 2°52.64 17.0642 -999 -999 -999
2010-04-07 13:41:03 51°20.811 2°52.559 17.0706 -999 -999 -999
2010-04-07 13:42:03 51°20.578 2°52.496 17.0773 -999 -999 -999
2010-04-07 13:43:03 51°20.346 2°52.43 17.084 -999 -999 -999
2010-04-07 13:44:03 51°20.115 2°52.364 17.0912 -999 -999 -999
2010-04-07 13:45:04 51°19.88 2°52.31 17.0974 -999 -999 -999
2010-04-07 13:46:04 51°19.647 2°52.286 17.1042 -999 -999 -999
2010-04-07 13:47:04 51°19.415 2°52.259 17.1111 -999 -999 -999
2010-04-07 13:48:04 51°19.181 2°52.234 17.1183 -999 -999 -999
2010-04-07 13:49:04 51°18.949 2°52.212 17.1247 -999 -999 -999
2010-04-07 13:50:04 51°18.716 2°52.206 17.131 -999 -999 -999
2010-04-07 13:51:04 51°18.483 2°52.202 17.1384 -999 -999 -999
2010-04-07 13:52:04 51°18.247 2°52.201 17.1448 -999 -999 -999
2010-04-07 13:53:04 51°18.013 2°52.2 17.1515 -999 -999 -999
2010-04-07 13:54:04 51°17.777 2°52.204 17.1582 -999 -999 -999
2010-04-07 13:55:04 51°17.553 2°52.295 17.1644 -999 -999 -999
2010-04-07 13:56:04 51°17.341 2°52.438 17.1714 -999 -999 -999
2010-04-07 13:57:05 51°17.124 2°52.579 17.1795 -999 -999 -999
2010-04-07 13:58:04 51°16.915 2°52.715 17.1872 -999 -999 -999
2010-04-07 13:59:05 51°16.699 2°52.854 17.194 -999 -999 -999
2010-04-07 14:00:04 51°16.485 2°52.975 17.2007 -999 -999 -999
2010-04-07 14:01:05 51°16.266 2°53.097 17.2081 -999 -999 -999
2010-04-07 14:02:04 51°16.058 2°53.224 17.2175 -999 -999 -999
2010-04-07 14:03:04 51°15.861 2°53.395 17.226 -999 -999 -999
2010-04-07 14:04:04 51°15.672 2°53.586 17.2341 -999 -999 -999
2010-04-07 14:05:04 51°15.487 2°53.786 17.2426 -999 -999 -999
2010-04-07 14:06:04 51°15.306 2°53.994 17.2508 -999 -999 -999
2010-04-07 14:07:04 51°15.131 2°54.213 17.2598 -999 -999 -999
2010-04-07 14:08:04 51°14.958 2°54.436 17.2682 -999 -999 -999
2010-04-07 14:09:04 51°14.781 2°54.662 17.2751 -999 -999 -999
2010-04-07 14:10:04 51°14.603 2°54.881 17.2827 -999 -999 -999
2010-04-07 14:11:04 51°14.433 2°55.093 17.2916 -999 -999 -999
2010-04-07 14:12:04 51°14.275 2°55.271 17.3002 -999 -999 -999
2010-04-07 14:13:08 51°14.132 2°55.414 17.3082 -999 -999 -999
2010-04-07 14:14:08 51°14.016 2°55.494 17.3167 -999 -999 -999
2010-04-07 14:15:08 51°13.911 2°55.564 17.3255 -999 -999 -999
2010-04-07 14:16:07 51°13.822 2°55.625 17.335 -999 -999 -999
2010-04-07 14:17:08 51°13.74 2°55.695 17.3446 -999 -999 -999
2010-04-07 14:18:07 51°13.695 2°55.797 17.3538 -999 -999 -999
2010-04-07 14:19:06 51°13.677 2°55.885 17.3636 -999 -999 -999
2010-04-07 14:20:04 51°13.665 2°55.954 17.3746 -999 -999 -999